Regional Weather Roundup
Issued by NWS Goodland, KS

Home | Current Version | Previous Version | Graphics & Text | Print | Product List | Glossary On
Versions: 1 2 3 4 5 6 7 8 9 10 11 12 13 14 15 16 17 18 19 20 21 22 23 24 25 26 27 28 29 30 31 32 33 34 35 36 37 38 39 40 41 42 43 44 45 46 47 48 49 50
000
ASUS43 KGLD 131708
RWRGLD

GOODLAND FORECAST AREA HOURLY WEATHER ROUNDUP
NATIONAL WEATHER SERVICE GOODLAND KS
1100 AM MDT SUN JUL 13 2014

...OFFICIAL OBSERVATIONS...

CITY           SKY/WX    TMP DP  RH WIND       PRES   REMARKS
GOODLAND KS    PTSUNNY   81  60  48 E9        30.24S
HILL CITY KS   MOSUNNY   84  63  49 VRB6      30.16S
IMPERIAL NEB   SUNNY     82  61  48 N7        30.21F
MCCOOK NEB     SUNNY     85  58  39 N13G23    30.17S
AKRON CO       PTSUNNY   80  58  46 VRB5      30.29F
BURLINGTON CO  MOSUNNY   81  57  43 E10       30.28S
LIMON CO       MOSUNNY   76  56  49 E5        30.34S
$$

...UNOFFICIAL OBSERVATIONS...

CITY           SKY/WX    TMP DP  RH WIND       PRES   REMARKS
COLBY KS       MOSUNNY   82  66  57 N7        30.22F
GOVE KS          N/A     81  32  17 CALM        N/A
LENORA KS        N/A     83  32  16 MISG        N/A
NORTON KS      SUNNY     84  52  32 NW5       30.15S
OBERLIN KS     FAIR      84  54  34 NE8       30.18S
SHARON SPRINGS   N/A     80  65  61 CALM        N/A
ST FRANCIS KS  MOSUNNY   84  55  37 NE8       30.22F
WAKEENEY KS      N/A     84  59  42 MISG        N/A
KIT CARSON CO    N/A     77  63  61 N9G20       N/A
WRAY CO        FAIR      81  61  50 NE5       30.24S
YUMA CO          N/A     80  62  54 CALM        N/A
$$



USA.gov is the U.S. government's official web portal to all federal, state and local government web resources and services.